This is the latest recevied weather packets stored in our database for station/object KY4LEX. If no packets are shown the sender has not sent any weather packets the latest 10 day(s).
| Time | Temp. | Humidity | Pressure | Rain* | Wind** | Luminosity | Snow |
|---|---|---|---|---|---|---|---|
| 1778080886 | 12.78° C | 82% | 1017.7 hPa | 0 mm | - | 718 W/m² | - |
| 1778080585 | 12.78° C | 84% | 1017.5 hPa | 0 mm | - | 262 W/m² | - |
| 1778080281 | 12.22° C | 84% | 1017.5 hPa | 0 mm | - | 510 W/m² | - |
| 1778079978 | 12.22° C | 85% | 1017.5 hPa | 0 mm | - | 707 W/m² | - |
| 1778079675 | 12.22° C | 88% | 1017.6 hPa | 0 mm | - | 615 W/m² | - |
| 1778079372 | 11.67° C | 90% | 1017.3 hPa | 0 mm | - | 425 W/m² | - |
| 1778079069 | 11.11° C | 91% | 1017.3 hPa | 0 mm | - | 227 W/m² | - |
| 1778078766 | 10.56° C | 92% | 1017.3 hPa | 0 mm | - | 215 W/m² | - |
| 1778078462 | 10.56° C | 92% | 1017.3 hPa | 0 mm | - | 187 W/m² | - |
| 1778078160 | 10.56° C | 92% | 1017.4 hPa | 0 mm | - | 113 W/m² | - |
| 1778077858 | 10.56° C | 93% | 1017.2 hPa | 0 mm | - | 121 W/m² | - |
| 1778077556 | 10° C | 92% | 1017.3 hPa | 0 mm | - | 100 W/m² | - |
| 1778077254 | 10° C | 93% | 1017.3 hPa | 0 mm | - | 94 W/m² | - |
| 1778076951 | 10° C | 94% | 1017.3 hPa | 0 mm | - | 77 W/m² | - |
| 1778076650 | 10° C | 95% | 1017.4 hPa | 0 mm | - | 67 W/m² | - |
| 1778076347 | 10° C | 95% | 1017.3 hPa | 0 mm | - | 53 W/m² | - |
| 1778076044 | 10° C | 95% | 1017.2 hPa | 0 mm | - | 45 W/m² | - |
| 1778075741 | 10° C | 95% | 1016.8 hPa | 0 mm | - | 45 W/m² | - |
| 1778075437 | 10° C | 95% | 1016.8 hPa | 0 mm | - | 44 W/m² | - |
| 1778075133 | 10° C | 94% | 1016.6 hPa | 0 mm | - | 47 W/m² | - |
| 1778074829 | 10° C | 95% | 1016.6 hPa | 0 mm | - | 49 W/m² | - |
| 1778074527 | 10° C | 95% | 1016.6 hPa | 0 mm | - | 65 W/m² | - |
| 1778074224 | 10° C | 95% | 1016.1 hPa | 0 mm | - | 65 W/m² | - |
| 1778073921 | 10° C | 95% | 1016.4 hPa | 0 mm | - | 59 W/m² | - |
| 1778073618 | 10° C | 95% | 1016.4 hPa | 0 mm | - | 55 W/m² | - |
* Rain latest hour (hover to see other rain measurements)
** Current wind speed in m/s (hover to see current wind gust speed)